D2913 Weather Reports


Display with metric or nautical units.
time (UTC)temp
F
wind
direction
speed
MPH
gust
MPH
rain 1hr
in
rain 24hr
in
rain mn
in
humidity
%
barometer
mb
20260509164517 68 0 0.0 0.0 0.00 0.00 0.00 77 1014.7
20260509164016 68 0 0.0 0.0 0.00 0.00 0.00 76 1014.7
20260509163516 69 0 0.0 0.0 0.00 0.00 0.00 77 1014.7
20260509163016 69 0 0.0 0.0 0.00 0.00 0.00 77 1014.9
20260509162516 69 0 0.0 0.0 0.00 0.00 0.00 76 1014.8
20260509162017 69 0 0.0 0.0 0.00 0.00 0.00 76 1014.8
20260509161016 69 0 0.0 0.0 0.00 0.00 0.00 75 1015.0
20260509160516 69 0 0.0 0.0 0.00 0.00 0.00 76 1015.0
20260509160017 69 0 0.0 0.0 0.00 0.00 0.00 76 1015.0
20260509155516 69 0 0.0 0.0 0.00 0.00 0.00 76 1015.0
20260509155016 69 0 0.0 0.0 0.00 0.00 0.00 75 1015.1
20260509154017 69 0 0.0 0.0 0.00 0.00 0.00 76 1015.2
20260509153516 69 0 0.0 0.0 0.00 0.00 0.00 76 1015.3
20260509153017 69 0 0.0 0.0 0.00 0.00 0.00 76 1015.4
20260509152516 70 0 0.0 0.0 0.00 0.00 0.00 75 1015.6
20260509152016 71 0 0.0 0.0 0.00 0.00 0.00 75 1015.6
20260509151517 71 0 0.0 0.0 0.00 0.00 0.00 75 1015.7
20260509151017 71 0 0.0 0.0 0.00 0.00 0.00 75 1015.7
20260509150516 71 0 0.0 0.0 0.00 0.00 0.00 75 1015.7
20260509150017 71 0 0.0 0.0 0.00 0.00 0.00 75 1015.8
20260509145516 71 0 0.0 0.0 0.00 0.00 0.00 74 1015.8
20260509145016 71 0 0.0 0.0 0.00 0.00 0.00 73 1015.8
20260509144017 71 0 0.0 0.0 0.00 0.00 0.00 75 1015.8
20260509143516 71 0 0.0 0.0 0.00 0.00 0.00 75 1015.9
20260509142517 71 0 0.0 0.0 0.00 0.00 0.00 75 1016.0
20260509142017 72 0 0.0 0.0 0.00 0.00 0.00 74 1016.1
20260509141516 73 0 0.0 0.0 0.00 0.00 0.00 73 1016.2
20260509141016 73 0 0.0 0.0 0.00 0.00 0.00 73 1016.1
20260509140516 73 0 0.0 0.0 0.00 0.00 0.00 74 1016.4
20260509135517 72 0 0.0 0.0 0.00 0.00 0.00 74 1016.2
20260509135016 71 0 0.0 0.0 0.00 0.00 0.00 73 1016.2
20260509134517 71 0 0.0 0.0 0.00 0.00 0.00 74 1016.1
20260509134016 70 0 0.0 0.0 0.00 0.00 0.00 75 1016.1
20260509133516 70 0 0.0 0.0 0.00 0.00 0.00 75 1016.2
20260509132517 72 0 0.0 0.0 0.00 0.00 0.00 74 1016.6
20260509132017 72 0 0.0 0.0 0.00 0.00 0.00 75 1016.7
20260509131517 71 0 0.0 0.0 0.00 0.00 0.00 76 1016.6
20260509130516 71 0 0.0 0.0 0.00 0.00 0.00 75 1016.6
20260509130017 71 0 0.0 0.0 0.00 0.00 0.00 74 1016.8
20260509125516 72 0 0.0 0.0 0.00 0.00 0.00 73 1016.8
20260509125016 72 0 0.0 0.0 0.00 0.00 0.00 74 1016.8
20260509124516 72 0 0.0 0.0 0.00 0.00 0.00 75 1016.8
20260509124016 72 0 0.0 0.0 0.00 0.00 0.00 74 1016.9
20260509123516 71 0 0.0 0.0 0.00 0.00 0.00 74 1017.0
20260509123017 71 0 0.0 0.0 0.00 0.00 0.00 75 1017.0
20260509122517 71 0 0.0 0.0 0.00 0.00 0.00 74 1017.0
20260509122017 71 0 0.0 0.0 0.00 0.00 0.00 73 1017.1
20260509121517 71 0 0.0 0.0 0.00 0.00 0.00 74 1017.0
20260509121016 71 0 0.0 0.0 0.00 0.00 0.00 74 1017.1
20260509120516 71 0 0.0 0.0 0.00 0.00 0.00 74 1017.3
20260509120016 71 0 0.0 0.0 0.00 0.00 0.00 74 1017.3
20260509115017 70 0 0.0 0.0 0.00 0.00 0.00 75 1017.4
20260509114516 70 0 0.0 0.0 0.00 0.00 0.00 75 1017.3
20260509114016 69 0 0.0 0.0 0.00 0.00 0.00 75 1017.1
20260509113516 69 0 0.0 0.0 0.00 0.00 0.00 76 1017.1
20260509113017 68 0 0.0 0.0 0.00 0.00 0.00 76 1017.3
20260509112518 69 0 0.0 0.0 0.00 0.00 0.00 75 1017.4
20260509112016 69 0 0.0 0.0 0.00 0.00 0.00 76 1017.3
20260509111516 69 0 0.0 0.0 0.00 0.00 0.00 77 1017.3
20260509111016 69 0 0.0 0.0 0.00 0.00 0.00 75 1017.4
20260509110544 69 0 0.0 0.0 0.00 0.00 0.00 76 1017.5
20260509110016 69 0 0.0 0.0 0.00 0.00 0.00 77 1017.4
20260509105516 69 0 0.0 0.0 0.00 0.00 0.00 77 1017.4
20260509105016 69 0 0.0 0.0 0.00 0.00 0.00 78 1017.5
20260509104516 69 0 0.0 0.0 0.00 0.00 0.00 77 1017.6
20260509104016 68 0 0.0 0.0 0.00 0.00 0.00 78 1017.7
20260509103016 67 0 0.0 0.0 0.00 0.00 0.00 79 1017.5
20260509102516 67 0 0.0 0.0 0.00 0.00 0.00 79 1017.6
20260509102016 67 0 0.0 0.0 0.00 0.00 0.00 79 1017.7
20260509101516 66 0 0.0 0.0 0.00 0.00 0.00 79 1017.6
20260509101017 66 0 0.0 0.0 0.00 0.00 0.00 80 1017.7
20260509100516 66 0 0.0 0.0 0.00 0.00 0.00 79 1017.8
20260509100017 67 0 0.0 0.0 0.00 0.00 0.00 79 1017.9
20260509095516 67 0 0.0 0.0 0.00 0.00 0.00 80 1017.9
20260509095017 67 0 0.0 0.0 0.00 0.00 0.00 80 1017.8
20260509094517 67 0 0.0 0.0 0.00 0.00 0.00 80 1017.9
20260509094017 67 0 0.0 0.0 0.00 0.00 0.00 79 1017.9
20260509093017 67 0 0.0 0.0 0.00 0.00 0.00 79 1017.8
20260509092016 65 0 0.0 0.0 0.00 0.00 0.00 82 1017.6
20260509091544 65 0 0.0 0.0 0.00 0.00 0.00 82 1017.6
20260509091016 65 0 0.0 0.0 0.00 0.00 0.00 82 1017.7
20260509090516 66 0 0.0 0.0 0.00 0.00 0.00 82 1017.7
20260509090017 65 0 0.0 0.0 0.00 0.00 0.00 83 1017.6
20260509085516 64 0 0.0 0.0 0.00 0.00 0.00 84 1017.6
20260509084016 63 0 0.0 0.0 0.00 0.00 0.00 84 1017.5
20260509083016 62 0 0.0 0.0 0.00 0.00 0.00 85 1017.4
20260509082016 62 0 0.0 0.0 0.00 0.00 0.00 85 1017.3
20260509081016 61 0 0.0 0.0 0.00 0.00 0.00 86 1017.3
20260509080539 61 0 0.0 0.0 0.00 0.00 0.00 87 1017.1
20260509080017 60 0 0.0 0.0 0.00 0.00 0.00 87 1017.1
20260509074516 60 0 0.0 0.0 0.00 0.00 0.00 86 1017.0
20260509074017 60 0 0.0 0.0 0.00 0.00 0.00 85 1017.1
20260509073516 60 0 0.0 0.0 0.00 0.00 0.00 85 1017.1
20260509073017 60 0 0.0 0.0 0.00 0.00 0.00 85 1017.0
20260509072516 60 0 0.0 0.0 0.00 0.00 0.00 86 1017.1
20260509072016 60 0 0.0 0.0 0.00 0.00 0.00 87 1017.3
20260509070516 59 0 0.0 0.0 0.00 0.00 0.00 89 1017.5
20260509070017 59 0 0.0 0.0 0.00 0.00 0.00 91 1017.4
20260509065517 58 0 0.0 0.0 0.00 0.00 0.00 91 1017.4
20260509065016 57 0 0.0 0.0 0.00 0.00 0.00 91 1017.3
20260509064516 56 0 0.0 0.0 0.00 0.00 0.00 91 1017.1
20260509064017 55 0 0.0 0.0 0.00 0.00 0.00 90 1016.8
20260509063516 55 0 0.0 0.0 0.00 0.00 0.00 89 1016.7
20260509063017 54 0 0.0 0.0 0.00 0.00 0.00 87 1016.6
20260509062517 53 0 0.0 0.0 0.00 0.00 0.00 86 1016.4
20260509062017 52 0 0.0 0.0 0.00 0.00 0.00 84 1016.3
20260509061517 51 0 0.0 0.0 0.00 0.00 0.00 82 1016.1
20260509061017 50 0 0.0 0.0 0.00 0.00 0.00 84 1015.9
20260509060516 49 0 0.0 0.0 0.00 0.00 0.00 85 1015.8
20260509060016 49 0 0.0 0.0 0.00 0.00 0.00 86 1015.7
20260509055516 49 0 0.0 0.0 0.00 0.00 0.00 86 1015.7
20260509055017 49 0 0.0 0.0 0.00 0.00 0.00 86 1015.6
20260509054516 49 0 0.0 0.0 0.00 0.00 0.00 86 1015.3
20260509053516 49 0 0.0 0.0 0.00 0.00 0.00 86 1015.6
20260509053017 49 0 0.0 0.0 0.00 0.00 0.00 86 1015.6
20260509052519 48 0 0.0 0.0 0.00 0.00 0.00 85 1015.3
20260509052017 48 0 0.0 0.0 0.00 0.00 0.00 85 1015.4
20260509051517 48 0 0.0 0.0 0.00 0.00 0.00 86 1015.3
20260509051017 48 0 0.0 0.0 0.00 0.00 0.00 85 1015.3
20260509050016 48 0 0.0 0.0 0.00 0.00 0.00 85 1015.2
20260509045017 48 0 0.0 0.0 0.00 0.00 0.00 85 1015.1
20260509044517 47 0 0.0 0.0 0.00 0.00 0.00 85 1015.2
20260509044016 47 0 0.0 0.0 0.00 0.00 0.00 85 1015.1
20260509043516 47 0 0.0 0.0 0.00 0.00 0.00 86 1015.1
20260509043016 47 0 0.0 0.0 0.00 0.00 0.00 87 1015.1
20260509042516 47 0 0.0 0.0 0.00 0.00 0.00 87 1015.2
20260509042016 47 0 0.0 0.0 0.00 0.00 0.00 88 1015.2
20260509040516 48 0 0.0 0.0 0.00 0.00 0.00 88 1015.2
20260509035516 47 0 0.0 0.0 0.00 0.00 0.00 88 1015.0
20260509035016 48 0 0.0 0.0 0.00 0.00 0.00 88 1015.1
20260509034016 47 0 0.0 0.0 0.00 0.00 0.00 88 1015.1
20260509033517 47 0 0.0 0.0 0.00 0.00 0.00 88 1015.1
20260509032516 47 0 0.0 0.0 0.00 0.00 0.00 88 1014.9
20260509031516 48 0 0.0 0.0 0.00 0.00 0.00 88 1014.9
20260509031017 48 0 0.0 0.0 0.00 0.00 0.00 88 1014.9
20260509030516 48 0 0.0 0.0 0.00 0.00 0.00 88 1014.9
20260509030017 47 0 0.0 0.0 0.00 0.00 0.00 88 1014.9
20260509025517 47 0 0.0 0.0 0.00 0.00 0.00 88 1014.9
20260509025017 47 0 0.0 0.0 0.00 0.00 0.00 88 1014.8
20260509024516 47 0 0.0 0.0 0.00 0.00 0.00 88 1014.6
20260509024016 47 0 0.0 0.0 0.00 0.00 0.00 89 1014.6
20260509023516 47 0 0.0 0.0 0.00 0.00 0.00 89 1014.5
20260509023016 47 0 0.0 0.0 0.00 0.00 0.00 89 1014.7
20260509021517 47 0 0.0 0.0 0.00 0.00 0.00 90 1015.0
20260509021017 47 0 0.0 0.0 0.00 0.00 0.00 90 1014.9
20260509020016 47 0 0.0 0.0 0.00 0.00 0.00 90 1015.0
20260509015517 48 0 0.0 0.0 0.00 0.00 0.00 90 1015.0
20260509015016 48 0 0.0 0.0 0.00 0.00 0.00 91 1014.8
20260509014016 49 0 0.0 0.0 0.00 0.00 0.00 91 1014.9
20260509013516 49 0 0.0 0.0 0.00 0.00 0.00 91 1014.9
20260509013017 49 0 0.0 0.0 0.00 0.00 0.00 91 1014.7
20260509012516 49 0 0.0 0.0 0.00 0.00 0.00 91 1014.9
20260509012016 50 0 0.0 0.0 0.00 0.00 0.00 91 1014.8
20260509011016 50 0 0.0 0.0 0.00 0.00 0.00 91 1014.8
20260509010016 50 0 0.0 0.0 0.00 0.00 0.00 91 1014.9
20260509005016 50 0 0.0 0.0 0.00 0.00 0.00 91 1014.9
20260509004516 50 0 0.0 0.0 0.00 0.00 0.00 91 1014.9
20260509003516 50 0 0.0 0.0 0.00 0.00 0.00 91 1015.1
20260509003016 50 0 0.0 0.0 0.00 0.00 0.00 91 1015.1
20260509002040 50 0 0.0 0.0 0.00 0.00 0.00 91 1015.2
20260509001017 50 0 0.0 0.0 0.00 0.00 0.00 91 1015.2
20260509000017 50 0 0.0 0.0 0.00 0.00 0.00 91 1015.3
20260508235517 51 0 0.0 0.0 0.00 0.00 0.00 91 1015.3
20260508234517 50 0 0.0 0.0 0.00 0.00 0.00 91 1015.4
20260508234017 50 0 0.0 0.0 0.00 0.00 0.00 91 1015.4
20260508233517 50 0 0.0 0.0 0.00 0.00 0.00 91 1015.4
20260508233016 50 0 0.0 0.0 0.00 0.00 0.00 91 1015.3
20260508232517 50 0 0.0 0.0 0.00 0.00 0.00 91 1015.3
20260508232016 50 0 0.0 0.0 0.00 0.00 0.00 91 1015.3
20260508231516 50 0 0.0 0.0 0.00 0.00 0.00 91 1015.4
20260508231016 50 0 0.0 0.0 0.00 0.00 0.00 91 1015.4
20260508230017 51 0 0.0 0.0 0.00 0.00 0.00 90 1015.4
20260508225516 51 0 0.0 0.0 0.00 0.00 0.00 90 1015.6
20260508225017 52 0 0.0 0.0 0.00 0.00 0.00 90 1015.7
20260508224517 52 0 0.0 0.0 0.00 0.00 0.00 90 1015.6
20260508224022 52 0 0.0 0.0 0.00 0.00 0.00 90 1015.7
20260508223517 52 0 0.0 0.0 0.00 0.00 0.00 90 1015.7
20260508223016 52 0 0.0 0.0 0.00 0.00 0.00 90 1015.7
20260508222517 52 0 0.0 0.0 0.00 0.00 0.00 90 1015.8
20260508221517 52 0 0.0 0.0 0.00 0.00 0.00 90 1015.8
20260508221017 53 0 0.0 0.0 0.00 0.00 0.00 90 1015.9
20260508220516 53 0 0.0 0.0 0.00 0.00 0.00 89 1015.8
20260508220016 53 0 0.0 0.0 0.00 0.00 0.00 89 1015.9
20260508215517 53 0 0.0 0.0 0.00 0.00 0.00 89 1015.9
20260508215016 53 0 0.0 0.0 0.00 0.00 0.00 89 1015.8
20260508214516 53 0 0.0 0.0 0.00 0.00 0.00 89 1015.8
20260508214016 53 0 0.0 0.0 0.00 0.00 0.00 89 1015.8
20260508213516 53 0 0.0 0.0 0.00 0.00 0.00 89 1015.8
20260508213017 53 0 0.0 0.0 0.00 0.00 0.00 89 1015.9
20260508212517 53 0 0.0 0.0 0.00 0.00 0.00 89 1015.8
20260508212017 53 0 0.0 0.0 0.00 0.00 0.00 89 1015.8
20260508211517 53 0 0.0 0.0 0.00 0.00 0.00 89 1015.9
20260508210517 54 0 0.0 0.0 0.00 0.00 0.00 89 1015.8
20260508210017 54 0 0.0 0.0 0.00 0.00 0.00 89 1015.9
20260508205516 54 0 0.0 0.0 0.00 0.00 0.00 89 1015.9
20260508204016 55 0 0.0 0.0 0.00 0.00 0.00 88 1016.0
20260508203517 55 0 0.0 0.0 0.00 0.00 0.00 88 1016.0
20260508202016 55 0 0.0 0.0 0.00 0.00 0.00 88 1016.1
20260508201016 56 0 0.0 0.0 0.00 0.00 0.00 87 1016.0
20260508200516 56 0 0.0 0.0 0.00 0.00 0.00 87 1015.9
20260508195516 56 0 0.0 0.0 0.00 0.00 0.00 87 1015.9
20260508195017 56 0 0.0 0.0 0.00 0.00 0.00 87 1015.9
20260508194016 57 0 0.0 0.0 0.00 0.00 0.00 86 1016.0
20260508193517 57 0 0.0 0.0 0.00 0.00 0.00 86 1015.9
20260508193016 57 0 0.0 0.0 0.00 0.00 0.00 86 1015.7
20260508192517 57 0 0.0 0.0 0.00 0.00 0.00 86 1015.8
20260508192016 58 0 0.0 0.0 0.00 0.00 0.00 85 1015.6
20260508191516 58 0 0.0 0.0 0.00 0.00 0.00 85 1015.7
20260508190517 58 0 0.0 0.0 0.00 0.00 0.00 85 1015.7
20260508185517 59 0 0.0 0.0 0.00 0.00 0.00 84 1015.6
20260508185016 59 0 0.0 0.0 0.00 0.00 0.00 84 1015.7
20260508184516 60 0 0.0 0.0 0.00 0.00 0.00 84 1015.6
20260508183516 60 0 0.0 0.0 0.00 0.00 0.00 83 1015.7
20260508183017 61 0 0.0 0.0 0.00 0.00 0.00 83 1015.7
20260508182516 61 0 0.0 0.0 0.00 0.00 0.00 82 1015.6
20260508181516 62 0 0.0 0.0 0.00 0.00 0.00 82 1015.6
20260508181016 62 0 0.0 0.0 0.00 0.00 0.00 81 1015.6
20260508180016 63 0 0.0 0.0 0.00 0.00 0.00 81 1015.7
20260508175016 64 0 0.0 0.0 0.00 0.00 0.00 81 1015.7
20260508174517 64 0 0.0 0.0 0.00 0.00 0.00 81 1015.6
20260508174016 64 0 0.0 0.0 0.00 0.00 0.00 81 1015.6
20260508173516 64 0 0.0 0.0 0.00 0.00 0.00 81 1015.3
20260508172517 64 0 0.0 0.0 0.00 0.00 0.00 81 1015.3
20260508171017 65 0 0.0 0.0 0.00 0.00 0.00 79 1015.4
20260508170516 66 0 0.0 0.0 0.00 0.00 0.00 79 1015.4
20260508170016 66 0 0.0 0.0 0.00 0.00 0.00 79 1015.4
20260508165017 66 0 0.0 0.0 0.00 0.00 0.00 79 1015.6